Location: Arapsuyu
(36.8765°N, 30.6529°E)
Time: 06:16:07
(UTC+00:00)

Daily predictions for brighter satellites

Satellite Brightness Start Highest point End
(mag) Time Altitude Azimuth Time Altitude Azimuth Time Altitude Azimuth
Cosmos 1802 Rocket 4.1 15:56:19 10° S 16:02:23 58° E 16:08:35 10° NNE
CZ-4 R/B 1.8 15:59:56 10° SE 16:03:56 44° ENE 16:07:56 10° N
STARLINK-31 4.1 16:00:37 10° SSW 16:04:25 42° SE 16:08:14 10° ENE
STARLINK-22 3.3 16:01:16 10° SSW 16:04:37 58° SE 16:08:02 10° NE
Cosmos 1805 Rocket 3.8 16:00:56 10° SSE 16:05:10 48° E 16:09:22 10° NNE
STARLINK-66 3.0 16:02:27 10° SW 16:05:42 85° NW 16:08:59 10° NE
STARLINK-41 3.2 16:02:32 10° SW 16:05:56 67° SE 16:09:21 10° NE
STARLINK-69 3.9 16:02:18 10° SSW 16:06:10 49° SE 16:10:04 10° ENE
USA 116 4.2 16:02:55 10° NNE 16:06:36 43° E 16:10:44 10° S
STARLINK-55 3.1 16:04:11 10° SW 16:07:27 79° NW 16:10:43 10° NE
Cosmos 2369 Rocket 3.5 16:03:50 10° SE 16:07:36 19° E 16:11:24 10° ENE
STARLINK-21 3.9 16:03:54 10° SSW 16:07:45 46° SE 16:11:36 10° ENE
Sich 1 3.5 16:04:58 10° SSE 16:08:54 36° E 16:12:51 10° NNE
STARLINK-28 3.3 16:05:56 10° SW 16:09:10 68° NW 16:12:26 10° NE
STARLINK-45 3.8 16:05:37 10° SSW 16:09:32 55° SE 16:13:28 10° NE
COSMO-SKYMED 1 2.7 16:05:15 10° N 16:09:38 84° WNW 16:13:58 10° SSW
USA 267 4.4 16:05:42 10° ENE 16:10:45 24° ESE 16:15:47 10° S
STARLINK-70 3.8 16:07:14 10° SSW 16:11:09 54° SE 16:15:05 10° NE
Cosmos 1939 Rocket 3.6 16:07:50 10° SE 16:11:30 33° ENE 16:15:13 10° N
Cosmos 1500 Rocket 4.4 16:08:09 10° SSW 16:12:30 56° W 16:16:55 10° N
STARLINK-76 3.8 16:08:48 10° SSW 16:12:42 52° SE 16:16:37 10° ENE
Cosmos 1992 Rocket 4.1 16:07:57 10° SSW 16:13:11 88° WNW 16:18:27 10° NNE
STARLINK-23 3.7 16:10:23 10° SSW 16:14:18 55° SE 16:18:14 10° NE
STARLINK-58 3.2 16:12:21 10° SW 16:15:53 72° SE 16:19:26 10° NE
STARLINK-32 3.7 16:12:03 10° SSW 16:15:59 57° SE 16:19:55 10° NE
STARLINK-1014 4.3 16:13:25 10° S 16:16:15 25° SE 16:18:51 11° ENE
STARLINK-40 3.7 16:13:35 10° SSW 16:17:32 59° SE 16:21:29 10° NE
STARLINK-62 3.2 16:14:01 10° SW 16:17:34 78° SE 16:21:08 10° NE
Cosmos 1812 4.3 16:15:13 10° NE 16:17:38 16° ENE 16:20:03 10° ESE
FengYun 1-2 T 4.4 16:12:14 10° SSE 16:17:54 85° WSW 16:23:33 10° NNW
Lacrosse 5 rocket 4.0 16:15:57 10° WNW 16:18:28 15° NNW 16:21:03 10° N
Cosmos 1707 Rocket 4.4 16:14:40 10° NNE 16:18:34 29° ENE 16:22:28 10° SE
Cosmos 2082 Rocket 2.2 16:13:08 10° NNW 16:18:49 82° ENE 16:24:28 10° SSE
STARLINK-34 3.1 16:15:25 10° SW 16:18:57 81° SE 16:22:30 10° NE
STARLINK-44 3.6 16:15:16 10° SW 16:19:13 61° SE 16:23:11 10° NE
STARLINK-37 3.5 16:16:59 10° SW 16:20:57 69° SE 16:24:58 10° NE
Cosmos 1486 Rocket 4.2 16:15:47 10° NNW 16:21:00 79° WSW 16:26:14 10° SSE
ATLAS 5 CENTAUR R/B 4.0 16:16:14 10° NW 16:21:59 42° WSW 16:28:22 10° S
STARLINK-36 3.6 16:18:31 10° SW 16:22:29 66° SE 16:26:28 10° NE
STARLINK-42 3.4 16:20:48 10° WSW 16:24:03 62° NW 16:27:20 10° NE
STARLINK-68 3.5 16:20:21 10° SW 16:24:20 77° SE 16:28:22 10° NE
Cosmos 292 Rocket 4.0 16:20:11 10° SSW 16:25:00 78° WNW 16:29:49 10° NNE
STARLINK-63 3.5 16:21:59 10° SW 16:25:59 77° SE 16:29:54 11° NE
Cosmos 1238 Rocket 3.9 16:21:19 10° S 16:27:09 82° E 16:33:44 10° N
STARLINK-35 3.5 16:23:33 10° SW 16:27:32 75° SE 16:31:21 11° NE
H-2A R/B 3.5 16:24:34 10° ESE 16:27:53 17° ENE 16:31:16 10° NNE
STARLINK-51 3.5 16:25:13 10° SW 16:29:13 78° SE 16:32:57 12° NE
Cosmos 2016 Rocket 3.9 16:23:47 10° S 16:29:51 81° E 16:35:59 10° N
STARLINK-30 3.5 16:26:47 10° SW 16:30:47 81° SE 16:34:29 12° NE
Cosmos 1354 Rocket 4.0 16:26:58 10° N 16:32:13 63° ENE 16:37:25 10° SSE
STARLINK-72 3.5 16:28:25 10° SW 16:32:26 84° SE 16:36:04 12° NE
STARLINK-50 3.5 16:30:06 10° SW 16:34:07 87° SE 16:37:41 13° NE
Cosmos 1833 Rocket 4.0 16:29:15 10° NW 16:34:35 44° WSW 16:39:52 10° S
STARLINK-59 3.5 16:31:48 10° SW 16:35:48 86° NW 16:39:22 13° NE
STARLINK-56 3.5 16:33:26 10° SW 16:37:27 87° NW 16:40:53 14° NE
Aureole 2 Rocket 4.0 16:36:43 10° SE 16:37:05 12° SE 16:37:05 12° SE
STARLINK-73 3.5 16:35:05 10° SW 16:39:05 84° NW 16:42:28 14° NE
HJ-1C 4.2 16:37:09 10° SE 16:40:03 29° ENE 16:42:57 10° NNE
STARLINK-38 3.6 16:36:42 10° SW 16:40:42 81° NW 16:44:01 15° NE
STARLINK-65 3.6 16:38:16 10° SW 16:42:17 79° NW 16:45:33 15° NE
STARLINK-53 3.7 16:40:10 10° SW 16:44:10 72° NW 16:47:24 15° NE
Ariane Rocket 3.6 16:40:04 10° SE 16:44:38 35° ENE 16:49:14 10° N
USA 229 DEB 3.5 16:38:16 10° SSW 16:44:43 76° ESE 16:51:28 10° NE
USA 229 3.5 16:38:23 10° SSW 16:44:49 75° ESE 16:51:34 10° NE
CSL-04 Rocket 3.7 16:40:04 10° SSE 16:45:38 86° ENE 16:51:11 10° NNW
STARLINK-64 4.2 16:43:30 10° WSW 16:46:57 45° NW 16:49:47 14° NNE
STARLINK-1023 2.6 16:44:35 10° SW 16:47:29 76° SE 16:48:45 30° NE
Cosmos 2233 Rocket 4.0 16:41:55 10° SSE 16:47:51 56° E 16:53:51 10° NNE
YAOGAN 1 2.8 16:44:14 10° S 16:48:32 71° WSW 16:52:52 10° NNW
ADEOS Rocket 3.6 16:43:05 10° NNE 16:50:54 81° ESE 16:58:36 10° S
STARLINK-1007 2.6 16:48:38 10° SW 16:51:37 86° SE 16:52:49 33° NE
Cosmos 921 Rocket 3.1 16:47:30 10° S 16:51:54 59° ESE 16:56:21 10° NNE
NOSS 3-1 (A) 3.4 16:46:59 10° S 16:52:04 49° ESE 16:56:56 14° NE
ARGOS 4.1 16:51:27 22° E 16:52:51 25° ENE 16:57:11 10° NNE
NOAA 11 4.5 16:49:00 10° S 16:54:26 71° WSW 16:59:52 10° NNW
CSL-04 Debris 4.4 16:50:23 10° S 16:55:48 75° WSW 17:01:17 10° NNW
STARLINK-1010 2.8 16:55:20 10° SW 16:58:20 78° NW 16:59:18 39° NE
Cosmos 968 Rocket 4.4 16:54:11 10° NNW 16:59:12 51° WSW 17:04:15 10° S
STARLINK-1035 4.3 16:55:34 10° SSW 16:59:26 36° SE 17:00:17 32° ESE
Cosmos 1633 Rocket 2.9 16:55:40 10° S 17:00:00 84° E 17:04:21 10° N
Cosmos 1666 Rocket 3.8 16:57:31 10° SSW 17:01:57 74° W 17:06:27 10° N
STARLINK-1008 3.0 16:59:38 10° SW 17:02:42 69° NW 17:03:37 41° NNE
Cosmos 1933 Rocket 4.4 16:58:47 10° SSE 17:01:54 30° ESE 17:01:54 30° ESE
STARLINK-1016 3.0 17:00:45 10° SW 17:03:49 67° NW 17:04:40 42° NNE
STARLINK-1025 3.1 17:01:14 10° SW 17:04:19 66° NW 17:05:11 42° NNE
STARLINK-1017 3.1 17:01:32 10° SW 17:04:35 65° NW 17:05:23 43° NNE
STARLINK-1029 2.7 17:01:55 10° SW 17:05:05 84° SE 17:05:35 59° ENE
Lacrosse 4 Rocket 3.5 17:01:43 10° WSW 17:05:15 26° WNW 17:08:53 10° N
Meteor 1-10 Rocket 4.3 16:59:43 10° NNW 17:05:20 77° W 17:10:52 10° S
STARLINK-1060 4.3 17:02:55 10° SSW 17:06:41 35° SE 17:06:50 35° SE
STARLINK-1048 3.2 17:04:04 10° WSW 17:07:06 61° NW 17:07:49 44° NNE
STARLINK-1028 3.2 17:04:17 10° WSW 17:07:19 60° NW 17:07:59 45° NNE
STARLINK-1021 3.2 17:04:40 10° WSW 17:07:42 59° NW 17:08:23 45° NNE
STARLINK-1049 3.2 17:04:55 10° WSW 17:07:57 59° NW 17:08:38 45° NNE
STARLINK-1051 3.3 17:05:49 10° WSW 17:08:51 58° NW 17:09:30 45° N
STARLINK-1047 4.1 17:05:12 10° SSW 17:09:04 38° SE 17:09:15 38° SE
STARLINK-1019 3.3 17:06:07 10° WSW 17:09:09 57° NW 17:09:46 45° N
CRYOSAT 2 4.2 17:04:31 10° S 17:09:23 82° E 17:14:19 10° N
STARLINK-1027 3.9 17:05:46 10° SSW 17:09:51 49° SE 17:10:30 44° ESE
STARLINK-1012 3.3 17:07:04 10° WSW 17:10:06 56° NW 17:10:41 45° N
Abrixas rocket 2.0 17:07:31 10° NW 17:10:12 63° N 17:10:12 63° N
STARLINK-1026 3.4 17:08:25 10° WSW 17:11:27 54° NW 17:12:00 45° N
STARLINK 1040 3.7 17:08:50 10° WSW 17:11:30 39° NW 17:11:53 36° NNW
STARLINK-1030 4.1 17:07:45 10° SSW 17:11:35 39° SE 17:11:35 39° SE
STARLINK-1013 3.5 17:09:56 10° WSW 17:12:57 51° NW 17:13:25 45° N
STARLINK-1009 3.5 17:10:52 10° WSW 17:13:53 50° NW 17:14:20 45° N
STARLINK-1031 3.8 17:10:12 10° SSW 17:13:52 45° SE 17:13:52 45° SE
STARLINK-1015 3.5 17:11:15 10° WSW 17:14:18 50° NW 17:14:47 45° N
STARLINK-1020 4.0 17:12:39 10° SSW 17:16:23 43° SE 17:16:23 43° SE
SL-4 R/B 2.4 17:13:02 10° NW 17:17:37 50° NE 17:18:08 47° ENE
ATLAS CENTAUR Rocket 4.3 17:14:14 10° S 17:17:42 18° SE 17:17:42 18° SE
NOSS 2-3 (C) 3.6 17:13:56 10° SSW 17:18:02 56° ESE 17:18:35 52° E
STARLINK-1052 4.0 17:17:27 10° SSW 17:21:04 47° SSE 17:21:04 47° SSE
Atlas 2A Centaur Rocket 3.7 17:19:11 10° WSW 17:22:13 16° SSW 17:23:08 14° S
MOS 1 4.2 17:19:29 14° SSE 17:24:16 61° ENE 17:29:51 10° N
Cosmos 1943 Rocket 2.4 17:19:08 10° SSW 17:24:42 68° WNW 17:30:16 10° NNE
STARLINK-1033 4.0 17:27:15 10° SSW 17:30:36 51° S 17:30:36 51° S
OAO 1 4.5 17:28:11 10° W 17:33:41 75° S 17:34:39 59° ESE
Cosmos 1607 4.0 17:31:49 10° NNW 17:38:10 83° WSW 17:41:40 29° SSE
Cosmos 1346 Rocket 4.4 17:34:49 10° S 17:36:31 25° S 17:36:31 25° S
STARLINK-1024 4.3 17:37:04 10° SW 17:40:07 48° SSW 17:40:07 48° SSW
BREEZE-M DEB (TANK) 3.4 17:35:48 10° WNW 17:41:35 49° SW 17:41:38 49° SW
Cosmos 1470 Rocket 4.0 17:37:33 10° SSW 17:41:48 59° W 17:46:07 10° N
Cosmos 1340 3.7 17:40:24 10° SSW 17:43:08 41° SW 17:43:08 41° SW
Hubble Space Telescope 3.5 17:44:43 10° SSW 17:44:53 11° SSW 17:44:53 11° SSW
Cosmos 1464 Rocket 3.9 17:41:32 10° S 17:47:46 65° E 17:54:04 10° NNE
Cosmos 2369 Rocket 2.9 17:45:38 10° SW 17:51:06 53° WNW 17:56:25 11° NNE
Cosmos 1777 Rocket 4.1 17:46:12 10° NNW 17:51:29 75° WSW 17:52:30 57° S
Cosmos 2285 Rocket 4.0 17:45:26 10° NNW 17:51:28 62° NE 17:51:28 62° NE
Cosmos 1862 Rocket 4.3 17:48:51 10° NNW 17:53:02 50° W 17:54:14 38° SW
USA 267 3.2 17:51:35 41° NE 17:54:07 81° NW 18:00:39 10° SW
FALCON 9 R/B 3.2 17:44:33 10° W 18:00:55 53° SSW 18:02:33 44° SSE
CZ-2C R/B 3.4 18:03:48 59° SSW 18:04:52 76° WSW 18:10:42 10° NNW
H-2A R/B 2.6 18:05:08 41° SSW 18:06:45 57° W 18:12:04 10° NNW
Cosmos 1656 Rocket 4.4 18:02:52 10° SSW 18:06:26 43° SSW 18:06:26 43° SSW
USA 234 4.4 18:27:26 30° N 18:27:26 30° N 18:31:30 10° NNW
ARGOS 4.4 18:32:57 39° W 18:32:57 39° W 18:37:55 10° NNW
